Date String (YYYY-MM-DD hh:mm:ss) UTC,Instrument flags,absolute air pressure of the measurement (hPa),sample flow rate (lpm),inlet stack bypass flow (lpm),air temperature of the measurement (°C),ambient temperature measured by the external sensor (°C),aerosol sample conditioner tube jacket temperature (°C),OPC LED temperature (°C),internal box temperature (°C),relative humidity of the measurement (%),span deviation,mass concentration of particles derived from Lorenz-Mie calculation of OPC scattering (μg/m³),mass concentration of particles derived from Lorenz-Mie calculation of OPC scattering (μg/m³),mass concentration of particles derived from Lorenz-Mie calculation of OPC scattering (μg/m³)
DateTimeUTC,F1_M11,P_M11,Q1_M11,Q2_M11,T1_M11,T2_M11,T3_M11,T4_M11,T5_M11,U1_M11,ZSPAN_M11,X0_M11,X2_M11,X1_M11
2023-11-26 13:00:00,SystemResetWarning,0831.6,5.00,000.00,018.8,018.0,000.0,027.3,020.0,10.6,0000.0,0002.08,0001.64,0001.43
2023-11-26 13:01:00,SystemResetWarning,0831.6,4.99,000.00,018.8,017.9,000.0,027.3,020.0,10.6,0000.0,0002.03,0001.60,0001.42
2023-11-26 13:02:00,SystemResetWarning,0831.6,4.99,000.00,018.8,017.8,000.0,027.3,020.1,10.6,0000.0,0002.01,0001.59,0001.41
2023-11-26 13:03:00,SystemResetWarning,0831.6,5.01,000.00,018.9,018.2,000.0,027.2,020.4,10.6,0000.0,0002.03,0001.59,0001.41
2023-11-26 13:04:00,SystemResetWarning,0831.6,5.01,000.00,019.0,019.0,000.0,027.2,020.8,10.5,0000.0,0002.01,0001.57,0001.41
2023-11-26 13:05:00,SystemResetWarning,0831.6,4.98,000.00,019.0,018.9,000.0,027.2,020.3,10.6,0000.0,0002.03,0001.58,0001.41
2023-11-26 13:06:00,SystemResetWarning,0831.6,5.00,000.00,018.9,018.7,000.0,027.2,020.0,10.7,0000.0,0002.03,0001.59,0001.42
2023-11-26 13:07:00,SystemResetWarning,0831.6,4.99,000.00,018.9,018.4,000.0,027.2,020.0,10.5,0000.0,0002.06,0001.59,0001.41
2023-11-26 13:08:00,SystemResetWarning,0831.6,5.00,000.00,018.8,018.2,000.0,027.3,020.0,10.5,0000.0,0002.14,0001.62,0001.42
2023-11-26 13:09:00,SystemResetWarning,0831.6,5.00,000.00,018.8,018.1,000.0,027.3,020.0,10.5,0000.0,0002.23,0001.66,0001.44
2023-11-26 13:10:00,SystemResetWarning,0831.6,5.01,000.00,018.8,017.9,000.0,027.3,020.0,10.5,0000.0,0002.24,0001.67,0001.45
2023-11-26 13:11:00,SystemResetWarning,0831.7,5.00,000.00,018.8,017.8,000.0,027.3,020.0,10.4,0000.0,0002.28,0001.69,0001.46
2023-11-26 13:12:00,SystemResetWarning,0831.6,5.01,000.00,018.8,017.8,000.0,027.2,020.2,10.5,0000.0,0002.34,0001.72,0001.48
2023-11-26 13:13:00,SystemResetWarning,0831.7,5.00,000.00,018.9,018.5,000.0,027.2,020.6,10.6,0000.0,0002.31,0001.71,0001.48
2023-11-26 13:14:00,SystemResetWarning,0831.7,4.99,000.00,019.0,019.1,000.0,027.2,020.7,10.6,0000.0,0002.25,0001.69,0001.47
2023-11-26 13:15:00,SystemResetWarning,0831.7,4.99,000.00,019.0,018.9,000.0,027.2,020.2,10.6,0000.0,0002.36,0001.73,0001.48
2023-11-26 13:16:00,SystemResetWarning,0831.7,5.01,000.00,018.9,018.6,000.0,027.2,020.0,10.6,0000.0,0002.31,0001.71,0001.47
2023-11-26 13:17:00,SystemResetWarning,0831.8,5.01,000.00,018.9,018.4,000.0,027.2,020.0,10.6,0000.0,0002.18,0001.66,0001.46
2023-11-26 13:18:00,SystemResetWarning,0831.8,4.98,000.00,018.9,018.2,000.0,027.2,020.0,10.5,0000.0,0002.19,0001.67,0001.46
2023-11-26 13:19:00,SystemResetWarning,0831.7,5.00,000.00,018.8,018.1,000.0,027.2,020.0,10.5,0000.0,0002.13,0001.65,0001.46
2023-11-26 13:20:00,SystemResetWarning,0831.8,5.01,000.00,018.8,017.9,000.0,027.2,020.0,10.6,0000.0,0002.08,0001.62,0001.44
2023-11-26 13:21:00,SystemResetWarning,0831.7,5.01,000.00,018.8,017.8,000.0,027.2,020.0,10.6,0000.0,0002.10,0001.64,0001.43
2023-11-26 13:22:00,SystemResetWarning,0831.7,5.01,000.00,018.8,018.1,000.0,027.2,020.4,10.6,0000.0,0002.08,0001.63,0001.42
2023-11-26 13:23:00,SystemResetWarning,0832.1,4.99,000.00,019.0,018.9,000.0,027.2,020.8,10.6,0000.0,0002.11,0001.62,0001.41
2023-11-26 13:24:00,SystemResetWarning,0831.8,4.99,000.00,019.0,019.0,000.0,027.2,020.5,10.5,0000.0,0002.53,0001.65,0001.41
2023-11-26 13:25:00,SystemResetWarning,0832.2,5.00,000.00,018.9,018.8,000.0,027.2,020.0,10.6,0000.0,0002.64,0001.70,0001.42
2023-11-26 13:26:00,SystemResetWarning,0832.0,5.01,000.00,018.9,018.6,000.0,027.2,020.0,10.6,0000.0,0002.52,0001.66,0001.42
2023-11-26 13:27:00,SystemResetWarning,0831.8,5.01,000.00,018.9,018.3,000.0,027.2,020.0,10.6,0000.0,0002.62,0001.68,0001.42
2023-11-26 13:28:00,SystemResetWarning,0831.8,5.00,000.00,018.8,018.1,000.0,027.3,020.0,10.6,0000.0,0002.65,0001.69,0001.43
2023-11-26 13:29:00,SystemResetWarning,0831.8,5.00,000.00,018.8,018.0,000.0,027.3,020.0,10.6,0000.0,0002.66,0001.69,0001.44
2023-11-26 13:30:00,SystemResetWarning,0831.9,4.99,000.00,018.8,017.8,000.0,027.3,020.0,10.7,0000.0,0002.68,0001.69,0001.44
2023-11-26 13:31:00,SystemResetWarning,0831.9,5.00,000.00,018.8,017.8,000.0,027.2,020.1,10.8,0000.0,0002.69,0001.69,0001.44
2023-11-26 13:32:00,SystemResetWarning,0832.0,5.02,000.00,018.9,018.4,000.0,027.2,020.5,10.7,0000.0,0002.70,0001.69,0001.44
2023-11-26 13:33:00,SystemResetWarning,0832.0,4.99,000.00,019.0,019.1,000.0,027.2,020.8,10.6,0000.0,0002.73,0001.70,0001.45
2023-11-26 13:34:00,SystemResetWarning,0832.0,4.99,000.00,019.0,019.0,000.0,027.2,020.4,10.6,0000.0,0002.80,0001.72,0001.45
2023-11-26 13:35:00,SystemResetWarning,0832.0,5.01,000.00,019.0,018.8,000.0,027.2,020.0,10.6,0000.0,0002.57,0001.70,0001.44
2023-11-26 13:36:00,SystemResetWarning,0832.0,5.00,000.00,018.9,018.6,000.0,027.2,020.0,10.5,0000.0,0002.35,0001.64,0001.42
2023-11-26 13:37:00,SystemResetWarning,0832.0,5.00,000.00,018.9,018.4,000.0,027.2,020.0,10.5,0000.0,0002.45,0001.66,0001.41
2023-11-26 13:38:00,SystemResetWarning,0832.0,5.00,000.00,018.8,018.2,000.0,027.2,020.0,10.5,0000.0,0002.45,0001.66,0001.41
2023-11-26 13:39:00,SystemResetWarning,0832.0,5.00,000.00,018.8,018.1,000.0,027.2,020.0,10.5,0000.0,0002.38,0001.64,0001.39
2023-11-26 13:40:00,SystemResetWarning,0832.0,5.00,000.00,018.8,018.0,000.0,027.2,020.0,10.6,0000.0,0002.36,0001.65,0001.38
2023-11-26 13:41:00,SystemResetWarning,0832.0,5.00,000.00,018.8,017.9,000.0,027.2,020.0,10.6,0000.0,0003.75,0001.64,0001.37
2023-11-26 13:42:00,SystemResetWarning,0832.0,5.01,000.00,018.8,017.9,000.0,027.2,020.0,10.6,0000.0,0003.89,0001.62,0001.37
2023-11-26 13:43:00,SystemResetWarning,0832.0,5.00,000.00,018.8,017.9,000.0,027.2,020.2,10.6,0000.0,0003.82,0001.59,0001.36
2023-11-26 13:44:00,SystemResetWarning,0832.1,5.00,000.00,018.9,018.6,000.0,027.2,020.6,10.5,0000.0,0003.79,0001.58,0001.36
2023-11-26 13:45:00,SystemResetWarning,0832.0,4.99,000.00,019.0,019.0,000.0,027.2,020.7,10.4,0000.0,0003.73,0001.55,0001.35
2023-11-26 13:46:00,SystemResetWarning,0832.0,4.99,000.00,019.0,018.8,000.0,027.2,020.1,10.3,0000.0,0003.62,0001.55,0001.35
2023-11-26 13:47:00,SystemResetWarning,0832.1,5.00,000.00,018.9,018.6,000.0,027.2,020.0,10.3,0000.0,0003.62,0001.56,0001.35
2023-11-26 13:48:00,SystemResetWarning,0832.1,5.00,000.00,018.9,018.4,000.0,027.2,020.0,10.3,0000.0,0003.52,0001.52,0001.35
2023-11-26 13:49:00,SystemResetWarning,0832.1,5.00,000.00,018.8,018.2,000.0,027.2,020.0,10.3,0000.0,0003.45,0001.50,0001.34
2023-11-26 13:50:00,SystemResetWarning,0832.2,5.00,000.00,018.8,018.1,000.0,027.2,020.0,10.3,0000.0,0003.46,0001.50,0001.34
2023-11-26 13:51:00,SystemResetWarning,0832.2,5.00,000.00,018.8,018.0,000.0,027.2,020.0,10.3,0000.0,0003.44,0001.48,0001.34
2023-11-26 13:52:00,SystemResetWarning,0832.2,5.00,000.00,018.8,017.9,000.0,027.2,020.0,10.3,0000.0,0002.03,0001.48,0001.33
2023-11-26 13:53:00,SystemResetWarning,0832.2,5.01,000.00,018.8,017.9,000.0,027.2,020.2,10.2,0000.0,0001.79,0001.47,0001.31
2023-11-26 13:54:00,SystemResetWarning,0832.2,5.01,000.00,018.9,018.5,000.0,027.2,020.6,10.1,0000.0,0001.88,0001.46,0001.30
2023-11-26 13:55:00,SystemResetWarning,0832.2,5.00,000.00,019.0,019.1,000.0,027.2,020.8,10.1,0000.0,0002.83,0001.45,0001.29
2023-11-26 13:56:00,SystemResetWarning,0832.2,4.99,000.00,019.0,019.0,000.0,027.2,020.3,10.2,0000.0,0002.84,0001.44,0001.28
2023-11-26 13:57:00,SystemResetWarning,0832.1,5.00,000.00,018.9,018.7,000.0,027.2,020.0,10.2,0000.0,0002.87,0001.45,0001.28
2023-11-26 13:58:00,SystemResetWarning,0832.2,5.00,000.00,018.9,018.5,000.0,027.2,020.0,10.2,0000.0,0003.04,0001.48,0001.29
2023-11-26 13:59:00,SystemResetWarning,0832.2,5.01,000.00,018.9,018.3,000.0,027.2,020.0,10.2,0000.0,0002.98,0001.46,0001.29
